Location: Claunay
(46.9922°N, 0.1948°E)
Time: 15:30:48
(UTC+00:00)

Daily predictions for brighter satellites

Satellite Brightness Start Highest point End
(mag) Time Altitude Azimuth Time Altitude Azimuth Time Altitude Azimuth
Resurs 01 Rocket 1.7 20:10:51 10° SSE 20:15:13 67° ENE 20:19:36 10° N
Aureole 1 Rocket 2.6 20:13:18 10° S 20:16:21 41° ESE 20:19:11 10° NE
Cosmos 1515 Rocket 3.8 20:13:08 10° S 20:17:21 50° E 20:21:38 10° NNE
Cosmos 2227 Rocket 2.6 20:14:03 10° NNW 20:19:42 67° WSW 20:25:17 10° SSE
Landsat 7 4.1 20:16:00 10° S 20:20:42 73° WSW 20:25:26 10° NNW
Cosmos 921 Rocket 3.7 20:16:38 10° N 20:21:00 44° ENE 20:25:18 10° SE
PSLV R/B 3.8 20:18:42 10° NNE 20:22:46 76° ESE 20:26:47 10° S
Cosmos 1980 Rocket 2.5 20:23:45 10° S 20:29:05 46° ESE 20:34:29 10° NE
CARTOSAT-1 4.1 20:26:36 10° SE 20:30:42 45° ENE 20:34:51 10° N
Cosmos 2228 Rocket 4.3 20:29:24 10° SE 20:33:10 26° E 20:36:55 10° NNE
Cosmos 1464 Rocket 4.0 20:28:00 10° S 20:34:07 67° E 20:40:14 10° NNE
ARGOS Delta rocket 4.2 20:31:02 10° NNE 20:36:34 80° E 20:41:59 10° S
Cosmos 2344 3.5 20:29:37 10° SSW 20:37:01 61° ESE 20:44:29 10° NE
IRS-1A Rocket 4.5 20:31:36 10° SSE 20:37:16 80° WSW 20:43:06 10° NNW
ISS -3.1 20:34:28 10° WNW 20:37:46 53° NNE 20:41:04 10° E
Cosmos 2322 Rocket 4.1 20:37:40 10° E 20:38:20 10° E 20:39:01 10° E
Cosmos 2369 3.7 20:33:10 10° S 20:38:43 63° ESE 20:44:19 10° NNE
Cosmos 1354 Rocket 4.3 20:34:38 10° S 20:39:40 48° ESE 20:44:46 10° NNE
Spot 2 Rocket 4.3 20:35:42 10° SE 20:40:17 38° ENE 20:44:57 10° N
Cosmos 773 Rocket 4.4 20:35:30 10° NNW 20:40:37 53° ENE 20:45:19 12° SE
Cosmos 1536 3.0 20:37:11 10° NNW 20:41:13 74° W 20:45:14 10° S
SPOT 3 Rocket 3.7 20:36:21 10° SSE 20:41:24 60° ENE 20:46:29 10° N
ATLAS 2AS CENTAUR R/B 3.2 20:34:23 10° S 20:41:45 47° ESE 20:48:56 10° NE
Okean 1 3.8 20:40:36 10° SSE 20:44:21 41° E 20:48:10 10° NNE
Cosmos 1486 Rocket 4.2 20:39:49 10° SSW 20:45:07 78° WNW 20:50:26 10° NNE
H-2A R/B 3.0 20:42:24 10° N 20:46:21 48° WNW 20:50:18 10° SW
NOSS 3-4 (A) 3.8 20:40:44 10° SW 20:46:26 68° NW 20:52:40 10° NE
Meteor 1-19 Rocket 4.4 20:41:15 10° SSE 20:46:26 47° E 20:51:37 10° NNE
NOSS 3-4 (C) 3.8 20:40:47 10° SW 20:46:29 68° NW 20:52:44 10° NE
Nadezhda 4 Rocket 4.0 20:41:37 10° N 20:47:52 71° E 20:54:00 10° SSE
Cosmos 1697 Rocket 3.1 20:42:15 10° SW 20:47:53 70° WNW 20:53:35 10° NNE
RESURS DK-1 3.0 20:44:12 10° S 20:47:56 34° ESE 20:51:41 10° NE
SL-4 R/B 3.2 20:44:28 10° WNW 20:48:40 36° SW 20:52:09 13° SSE
ATLAS CENTAUR R/B 4.2 20:52:44 10° NNW 20:55:34 15° NNE 20:58:23 10° ENE
Cosmos 2297 Rocket 4.1 20:51:40 10° NW 20:56:05 24° WSW 21:00:29 10° SSW
ARIANE 5 R/B 3.9 20:53:39 13° ESE 20:56:54 27° ENE 21:00:42 10° N
Cosmos 44 Rocket 3.9 20:53:03 10° NNW 20:57:37 46° NE 21:01:28 14° ESE
MetOp-B 4.2 20:52:54 10° SSE 20:58:15 81° WSW 21:03:39 10° NNW
Cosmos 1184 Rocket 3.4 21:00:43 10° SSW 21:03:39 51° WNW 21:06:38 10° N
Cosmos 158 Rocket 4.4 21:00:28 10° NNW 21:05:29 51° ENE 21:09:24 17° SE
ATLAS 3B R/B 3.5 20:59:24 10° NW 21:06:30 51° NE 21:13:24 12° ESE
Meteor 2-9 Rocket 4.2 21:01:20 10° N 21:07:09 82° E 21:12:06 14° SSE
NOSS 2-1 (E) 4.3 21:08:10 18° ESE 21:08:10 18° ESE 21:10:22 10° ENE
Cosmos 1975 3.4 21:07:11 10° N 21:11:05 43° ENE 21:13:33 20° SE
Timation 2 Rocket 4.3 21:04:42 10° NNW 21:11:15 72° WSW 21:17:06 14° SSE
Cosmos 2026 Rocket 4.2 21:06:13 10° N 21:12:16 55° ENE 21:17:00 17° SSE
Cosmos 389 Rocket 3.9 21:09:14 10° NNW 21:12:26 33° W 21:15:37 10° SSW
Cosmos 1503 Rocket 4.3 21:09:09 10° SSW 21:14:25 74° WNW 21:19:47 10° NNE
ERS-1 Rocket 3.1 21:12:32 17° SSE 21:16:21 66° ENE 21:21:22 10° N
CZ-4B R/B 3.7 21:14:20 10° NNW 21:16:57 24° WNW 21:19:33 10° WSW
SL-16 R/B 3.0 21:13:28 16° SSE 21:17:00 31° ESE 21:21:54 10° NE
BREEZE-M (TANK) 4.4 21:13:08 10° W 21:17:32 78° N 21:37:04 10° E
Cosmos 1538 Rocket 4.5 21:15:44 10° NNW 21:20:51 49° ENE 21:24:18 19° SE
Helios 1A Rocket 2.9 21:19:01 18° S 21:21:58 79° WSW 21:26:00 10° NNW
CZ-2C R/B 3.9 21:19:26 10° NNE 21:24:09 57° E 21:27:47 17° S
Cosmos 1733 Rocket 3.8 21:21:08 10° N 21:25:21 39° ENE 21:27:44 22° SE
OE (NEXTSAT) 4.1 21:26:21 10° WSW 21:29:38 67° S 21:32:08 16° E
SJ 16-02 1.6 21:27:22 10° SSW 21:31:43 68° WNW 21:36:06 10° NNE
Meteor 1-18 Rocket 4.2 21:26:49 12° S 21:32:13 78° E 21:37:51 10° NNE
Cosmos 1627 Rocket 4.5 21:27:12 10° N 21:33:27 79° E 21:38:04 19° SSE
Cosmos 2292 Rocket 2.5 21:34:03 10° N 21:37:04 82° W 21:38:15 33° S
Cosmos 2034 Rocket 4.5 21:31:01 10° SSW 21:37:14 62° WNW 21:43:33 10° N
Cosmos 2278 3.7 21:31:44 10° SSW 21:37:24 87° WNW 21:43:08 10° NNE
ASTRO F (AKARI) 4.1 21:37:45 32° S 21:39:02 81° WSW 21:42:13 10° NNW
Cosmos 1862 Rocket 4.2 21:37:31 25° SE 21:39:31 41° E 21:43:45 10° NNE
BREEZE M DEB (TANK) 4.1 21:37:35 10° WNW 21:41:56 64° SSW 21:55:47 14° SE
Cosmos 2360 Rocket 3.4 21:40:43 20° ESE 21:42:13 23° E 21:46:31 10° NE
Cosmos 1726 4.3 21:42:03 10° NE 21:44:00 14° ENE 21:45:09 12° E
Meteor 2-15 4.5 21:41:00 19° S 21:45:20 65° E 21:51:22 10° NNE
Cosmos 2263 Rocket 2.5 21:40:06 10° NNW 21:45:36 59° WSW 21:49:11 21° S
NOSS 2-1 (C) 2.7 21:46:44 26° SSW 21:48:18 58° SE 21:51:29 10° NE
SPOT 5 3.5 21:45:43 18° S 21:49:35 58° W 21:54:40 10° NNW
Terra 1.9 21:47:56 24° S 21:50:48 78° WSW 21:55:35 10° NNW
Cosmos 482 Debris 4.5 21:47:51 10° WNW 21:50:53 48° SSW 21:52:24 32° SSE
Cosmos 1441 Rocket 3.8 21:51:04 33° SE 21:51:55 38° E 21:55:23 10° NNE
Resurs 01 Rocket 4.2 21:49:52 10° WSW 21:52:10 14° W 21:54:28 10° WNW
Cosmos 1346 Rocket 2.7 21:50:23 26° S 21:52:31 80° E 21:56:34 10° NNE
SAR-Lupe-1 4.2 21:50:14 10° NNE 21:53:46 53° E 21:54:47 38° SSE
Cosmos 2279 Rocket 4.0 21:53:29 23° SSE 21:57:23 63° E 22:03:32 10° NNE
NOSS 2-1 (D) 2.6 21:56:58 24° SSW 21:58:45 77° SE 22:01:58 10° NE
Cosmos 990 Rocket 4.4 21:57:54 28° SSE 22:00:06 44° ESE 22:05:03 10° NE
Cosmos 1680 Rocket 4.4 21:55:36 10° N 22:00:33 38° ENE 22:03:26 22° ESE
USA 215 3.9 21:55:52 10° ENE 22:01:33 31° SE 22:03:42 25° SSE
Iridium 2 3.7 21:59:35 10° N 22:03:19 61° E 22:04:23 41° SE
Cosmos 1066 Rocket 4.4 22:05:06 28° SSE 22:07:59 56° E 22:13:31 10° NNE
Cosmos 1818 4.4 22:03:19 10° NNW 22:08:32 43° NE 22:12:08 19° ESE
Iridium 4 Rocket 4.2 22:07:54 10° NNE 22:12:07 34° E 22:13:44 27° ESE
Cosmos 1980 Rocket 3.9 22:08:11 10° WSW 22:13:15 33° NW 22:18:23 10° NNE
Cosmos 1898 Rocket 4.1 22:11:50 31° SE 22:13:28 39° ESE 22:18:23 10° NE
SL-24 R/B - RUBIN 2 4.1 22:09:40 10° NW 22:13:55 49° WSW 22:15:32 33° S
ISS -2.9 22:11:22 10° WNW 22:14:21 35° SW 22:14:21 35° SW
Okean 1-7 3.7 22:17:25 33° ESE 22:18:22 38° E 22:22:25 10° NNE
Cosmos 2322 Rocket 2.1 22:18:02 26° S 22:21:17 70° ESE 22:26:53 10° NNE
Iridium 51 4.3 22:21:01 45° ESE 22:21:19 47° E 22:24:46 10° NNE
Cosmos 2180 Rocket 4.4 22:21:19 29° S 22:24:39 77° E 22:30:49 10° NNE
Cosmos 1844 Rocket 2.8 22:19:44 10° NNW 22:25:20 67° ENE 22:27:57 32° SE
Okean 3 4.3 22:25:02 32° ESE 22:25:39 34° E 22:29:29 10° NNE
RESURS DK-1 4.4 22:22:24 10° WSW 22:25:57 27° NW 22:29:32 10° N
Cosmos 2333 Rocket 3.1 22:25:18 27° ESE 22:26:20 29° ESE 22:31:07 10° NE
Cosmos 1805 3.1 22:23:38 10° N 22:27:33 90° ENE 22:28:28 52° S
BREEZE-M DEB (TANK) 2.5 22:28:57 10° W 22:31:29 48° SSW 22:31:53 46° S
ATLAS 2AS CENTAUR R/B 3.7 22:25:08 10° WSW 22:32:45 54° NW 22:40:05 10° NE
ARIANE 5 R/B 3.8 22:31:11 23° SW 22:33:13 35° W 22:37:22 10° NNW
ATLAS CENTAUR R/B 2.4 22:30:47 10° NNW 22:35:32 48° NE 22:37:50 27° ESE
USA 267 4.0 22:31:34 10° E 22:37:52 53° NNE 22:44:11 10° NW
Cosmos 44 Rocket 4.5 22:34:57 10° WNW 22:38:54 27° WSW 22:40:10 24° SW
Cosmos 1733 3.4 22:36:56 10° NNW 22:40:40 62° W 22:41:23 50° SW
Cosmos 1766 3.3 22:38:48 10° N 22:42:44 70° E 22:43:23 56° SE
Cosmos 2219 Rocket 3.0 22:44:47 29° ESE 22:45:40 31° ESE 22:50:30 10° NE
Cosmos 1844 3.7 22:43:14 10° NNW 22:49:05 85° ENE 22:51:27 38° SSE
Cosmos 1703 Rocket 3.5 22:48:16 51° SSE 22:49:19 75° E 22:53:45 10° NNE
Cosmos 372 Rocket 4.4 22:51:17 38° SE 22:52:15 43° ESE 22:57:08 10° NE
Meteor 1-4 Rocket 3.4 22:49:57 10° NNW 22:53:11 36° W 22:53:35 35° WSW
ATLAS 3B R/B 3.3 22:50:16 10° NW 22:57:20 49° WSW 23:00:39 31° S
Cosmos 1707 4.0 23:00:36 28° E 23:00:36 28° E 23:03:55 10° NNE
SL-16 R/B 3.1 22:55:26 10° SW 23:00:53 47° NW 23:06:23 10° NNE
Cosmos 1655 Rocket 4.0 22:55:14 10° N 23:01:29 78° W 23:04:10 36° S
Cosmos 1782 Rocket 3.5 22:59:36 10° N 23:03:59 80° E 23:04:50 57° SSE
Meteor 2-10 4.4 23:01:59 10° NNW 23:07:06 54° W 23:08:49 37° SSW
ERS-2 2.9 23:03:45 10° NNE 23:06:52 39° E 23:06:52 39° E
CZ-4C R/B 3.4 23:00:35 10° NW 23:07:33 60° NE 23:14:17 16° ESE
NOSS 3-1 (C) 4.1 23:00:58 10° NW 23:08:20 78° NE 23:14:02 24° SE
SWARM A 4.4 23:12:49 64° ENE 23:12:49 64° ENE 23:15:58 10° N
Gblst 52 Del rocket 4.3 23:07:09 10° WSW 23:13:41 87° SSE 23:19:28 10° ENE
Cosmos 1908 Rocket 4.3 23:10:43 10° NNW 23:14:49 42° W 23:15:46 36° SW
Cosmos 2237 Rocket 4.1 23:14:56 14° ESE 23:15:44 14° E 23:18:38 10° ENE
Meteor 1-15 Rocket 4.4 23:12:49 10° NNW 23:18:23 62° W 23:20:26 39° SSW
Cosmos 1470 2.6 23:14:54 10° N 23:18:46 71° E 23:19:01 68° ESE
COSMOS 2428 3.3 23:17:53 36° SE 23:18:58 40° ESE 23:24:14 10° NE
Cosmos 1726 2.6 23:15:45 10° NNW 23:19:17 46° W 23:19:26 46° WSW
Cosmos 1300 Rocket 3.6 23:15:47 10° N 23:20:07 64° E 23:20:51 53° SE
Cosmos 2242 Rocket 3.8 23:21:24 47° SW 23:22:35 67° W 23:27:08 10° N
ALOS 2 2.5 23:22:00 60° SSE 23:22:48 87° ENE 23:27:13 10° NNW
Cosmos 1937 Rocket 3.6 23:22:46 37° SW 23:24:50 75° WNW 23:30:09 10° NNE
Cosmos 2360 Rocket 2.6 23:22:25 25° SW 23:25:43 61° WNW 23:31:21 10° NNE
Cosmos 1242 Rocket 3.4 23:22:35 10° N 23:25:59 38° ENE 23:26:07 38° E
Okean 2 Rocket 3.9 23:22:42 10° N 23:27:00 41° ENE 23:28:05 35° ESE
In-Cosmos 22 4.5 23:29:31 41° SE 23:31:03 54° E 23:36:22 10° NNE
Cosmos 2333 4.1 23:29:02 39° SSW 23:31:12 88° WNW 23:36:53 10° NNE
Cosmos 1908 4.3 23:30:57 10° N 23:34:23 32° ENE 23:34:48 31° E
Cosmos 1867 3.8 23:33:44 45° SSE 23:34:39 50° ESE 23:39:56 10° NE
Meteor 1-21 4.4 23:34:35 43° SSE 23:36:24 64° E 23:42:09 10° NNE
Cosmos 1626 3.2 23:37:36 33° E 23:37:36 33° E 23:40:44 10° NNE
Cosmos 1842 3.7 23:38:57 47° WSW 23:39:25 50° WNW 23:43:13 10° N
Cosmos 1680 Rocket 4.5 23:37:53 10° NW 23:42:35 33° W 23:43:44 30° SW
Meteor 2-17 Rocket 4.5 23:37:24 10° NNW 23:43:33 74° W 23:45:46 42° S
Cosmos 1953 3.9 23:40:27 10° NNE 23:43:48 25° ENE 23:44:46 23° E
USA 215 3.2 23:38:28 10° NE 23:45:03 88° NW 23:51:00 13° WSW
Cosmos 2278 Rocket 3.1 23:39:58 10° NNW 23:45:25 45° NE 23:48:51 21° ESE
Cosmos 1674 2.8 23:50:45 60° E 23:50:45 60° E 23:54:23 10° NNE
Cosmos 1818 4.2 23:47:03 10° NW 23:52:04 38° WSW 23:52:45 37° SW
Sich 1 Rocket 3.4 23:48:56 10° N 23:53:22 87° WSW 23:54:00 65° S
